Springfield, CO

10:40 AM MDT on April 22, 2018 (GMT -0600)
Springfield

Weather History for KSPD - June, 2013

Change the Weather History Date:

Friday, June 28, 2013

  Actual Average Record
Temperature  
Mean Temperature 83 °F -  
Max Temperature 98 °F 90 °F 105 °F (2002)
Min Temperature 67 °F 59 °F 54 °F (2014)
Degree Days  
Heating Degree Days 0 0  
Month to date heating degree days 19 19  
Since 1 June heating degree days 19 19  
Since 1 July heating degree days 5211 5281  
Cooling Degree Days 18 10  
Month to date cooling degree days 335 190  
Year to date cooling degree days 452 244  
Since 1 June cooling degree days 335 190  
Growing Degree Days 32 (Base 50)    
Moisture  
Dew Point 52 °F    
Average Humidity 54    
Maximum Humidity 93    
Minimum Humidity 15    
Precipitation  
Precipitation 0.00 in 0.07 in 0.17 in (2001)
Month to date precipitation 1.64 2.33  
Year to date precipitation 3.62  
Sea Level Pressure  
Sea Level Pressure 29.97 in    
Wind  
Wind Speed 10 mph (SSE)    
Max Wind Speed 21 mph    
Max Gust Speed 30 mph    
T = Trace of Precipitation, MM = Missing Value Source: NWS Daily Summary

Daily Weather History Graph

Daily Weather History Graph

Search for Another Location

Airport or City:

Astronomy

Jun. 28, 2013 Rise Set
Actual Time 5:32 AM MDT 8:14 PM MDT
Civil Twilight 5:01 AM MDT 8:45 PM MDT
Nautical Twilight 4:22 AM MDT 9:24 PM MDT
Astronomical Twilight 3:39 AM MDT 10:07 PM MDT
Moon 11:54 PM MDT (6/28) 11:34 AM MDT (6/28)
Length of Visible Light 15h 44m
Length of Day
14h 42m
Waning Gibbous, 65% of the Moon is Illuminated
Jun 28
Waning Gibbous
Jun 29
Last Quarter
Jul 8
New
Jul 15
First Quarter
Jul 22
Full

Hourly Weather History & Observations

Time (MDT) Temp. Heat Index Dew Point Humidity Pressure Visibility Wind Dir Wind Speed Gust Speed Precip Events Conditions
12:56 AM 75.9 °F - 59.0 °F 56% 30.00 in - East 9.2 mph - N/A   Unknown
1:56 AM 72.0 °F - 64.9 °F 78% 30.01 in - ENE 4.6 mph - N/A   Unknown
2:56 AM 70.0 °F - 66.0 °F 87% 30.01 in - NNW 4.6 mph - N/A   Unknown
3:56 AM 70.0 °F - 66.0 °F 87% 30.02 in - North 6.9 mph - N/A   Unknown
4:56 AM 68.0 °F - 64.9 °F 90% 30.01 in - NW 8.1 mph - N/A   Unknown
5:56 AM 66.9 °F - 64.0 °F 90% 30.03 in - NNW 8.1 mph - N/A   Unknown
6:56 AM 72.0 °F - 66.0 °F 81% 30.04 in - NW 6.9 mph - N/A   Unknown
7:56 AM 81.0 °F 82.7 °F 64.9 °F 58% 30.03 in - NE 8.1 mph - N/A   Unknown
8:56 AM 86.0 °F 86.1 °F 61.0 °F 43% 30.02 in - ENE 9.2 mph - N/A   Unknown
9:56 AM 86.0 °F 86.1 °F 61.0 °F 43% 30.02 in - East 10.4 mph - N/A   Unknown
10:56 AM 89.1 °F - 50.0 °F 26% 30.01 in - East 11.5 mph - N/A   Unknown
11:56 AM 93.0 °F - 43.0 °F 18% 29.99 in - SSE 13.8 mph 19.6 mph N/A   Unknown
12:56 PM 95.0 °F - 43.0 °F 17% 29.97 in - South 15.0 mph 21.9 mph N/A   Unknown
1:56 PM 96.1 °F - 43.0 °F 16% 29.95 in - SSE 6.9 mph 23.0 mph N/A   Unknown
2:56 PM 98.1 °F - 45.0 °F 16% 29.93 in - WSW 11.5 mph 18.4 mph N/A   Unknown
3:56 PM 97.0 °F - 45.0 °F 17% 29.91 in - South 13.8 mph 18.4 mph N/A   Unknown
4:56 PM 97.0 °F - 43.0 °F 16% 29.89 in - SSW 12.7 mph - N/A   Unknown
5:56 PM 93.9 °F - 42.1 °F 17% 29.88 in - South 11.5 mph - N/A   Unknown
6:56 PM 93.0 °F - 39.9 °F 16% 29.89 in - South 17.3 mph 23.0 mph N/A   Unknown
7:56 PM 88.0 °F - 42.1 °F 20% 29.89 in - South 13.8 mph - N/A   Unknown
8:56 PM 82.9 °F - 43.0 °F 24% 29.88 in - South 12.7 mph - N/A   Unknown
9:56 PM 79.0 °F - 46.0 °F 31% 29.91 in - SSW 9.2 mph - N/A   Unknown
10:56 PM 73.9 °F - 45.0 °F 35% 29.92 in - SSE 9.2 mph - N/A   Unknown
11:56 PM 73.0 °F - 45.0 °F 37% 29.97 in - North 9.2 mph - N/A   Unknown